Location: Newark
(34.1333°N, 7.9667°W)
Time: 11:40:36
(UTC+00:00)

Transit 2A Rocket - All Passes

Search period start: 13 June 2021 00:00
Search period end: 23 June 2021 00:00
Orbit: 592 x 910 km, 66.7° (Epoch: 12 June)

Date Brightness Start Highest point End Pass type
(mag) Time Alt. Az. Time Alt. Az. Time Alt. Az.
13 Jun - 01:24:29 10° SSE 01:28:02 25° ESE 01:31:33 10° NE visible
13 Jun - 03:06:59 10° WSW 03:10:26 23° NW 03:13:55 10° N visible
13 Jun - 10:11:34 10° NNE 10:13:37 12° NE 10:15:43 10° ENE daylight
13 Jun - 11:51:29 10° NNW 11:56:40 86° WSW 12:02:20 10° SSE daylight
14 Jun - 00:43:57 10° SE 00:45:39 12° ESE 00:47:21 10° E visible
14 Jun - 02:23:34 10° SW 02:27:41 45° WNW 02:31:51 10° NNE visible
14 Jun - 11:09:00 10° NNW 11:14:02 52° ENE 11:19:31 10° SE daylight
14 Jun - 12:52:49 10° WNW 12:56:17 18° WSW 12:59:54 10° SSW daylight
15 Jun - 01:40:45 10° SSW 01:45:03 86° ESE 01:49:23 10° NNE visible
15 Jun - 10:26:49 10° N 10:31:19 30° ENE 10:36:08 10° ESE daylight
15 Jun - 12:09:10 10° NW 12:13:50 32° WSW 12:18:48 10° S daylight
16 Jun - 00:58:31 10° S 01:02:32 40° ESE 01:06:34 10° NE visible
16 Jun - 02:42:34 10° W 02:45:13 16° NW 02:47:54 10° NNW visible
16 Jun - 09:45:03 10° N 09:48:29 18° NE 09:52:05 10° E daylight
16 Jun - 11:26:10 10° NW 11:31:18 59° WSW 11:36:53 10° SSE daylight
17 Jun - 00:17:01 10° SSE 00:20:06 19° ESE 00:23:12 10° ENE visible
17 Jun - 01:58:37 10° WSW 02:02:22 29° WNW 02:06:11 10° N visible
17 Jun - 10:43:30 10° NNW 10:48:43 77° ENE 10:54:23 10° SSE daylight
17 Jun - 12:29:02 10° W 12:30:47 11° WSW 12:32:34 10° WSW daylight
18 Jun - 01:15:26 10° SW 01:19:40 58° WNW 01:23:57 10° NNE visible
18 Jun - 10:01:07 10° NNW 10:06:03 43° ENE 10:11:23 10° SE daylight
18 Jun - 11:44:20 10° WNW 11:48:23 22° WSW 11:52:40 10° SSW daylight
19 Jun - 00:32:49 10° SSW 00:37:04 66° ESE 00:41:22 10° NNE visible
19 Jun - 02:19:07 10° WNW 02:20:04 11° NW 02:21:01 10° NW visible
19 Jun - 09:19:02 10° N 09:23:17 25° NE 09:27:49 10° ESE daylight
19 Jun - 11:00:59 10° NW 11:05:54 40° WSW 11:11:12 10° S daylight
19 Jun - 23:50:49 10° S 23:54:35 31° ESE 23:58:23 10° NE visible
20 Jun - 01:33:59 10° WSW 01:37:07 20° NW 01:40:20 10° N visible
20 Jun - 08:37:31 10° NNE 08:40:23 15° NE 08:43:23 10° E daylight
20 Jun - 10:18:06 10° NNW 10:23:21 74° WSW 10:29:04 10° SSE daylight
20 Jun - 23:09:44 10° SE 23:12:11 15° ESE 23:14:40 10° ENE visible
21 Jun - 00:50:21 10° SW 00:54:19 37° WNW 00:58:22 10° N visible
21 Jun - 09:35:33 10° NNW 09:40:44 63° ENE 09:46:23 10° SE daylight
21 Jun - 11:19:56 10° WNW 11:22:54 15° WSW 11:25:59 10° SW daylight
22 Jun - 00:07:22 10° SSW 00:11:40 77° WNW 00:16:01 10° NNE visible
22 Jun - 08:53:16 10° N 08:58:03 35° ENE 09:03:12 10° SE daylight
22 Jun - 10:36:00 10° NW 10:40:29 27° WSW 10:45:15 10° SSW daylight
22 Jun - 23:24:57 10° S 23:29:06 50° ESE 23:33:18 10° NE visible
